G4GVZ-1 Weather Reports


time (UTC)temp
F
wind
direction
speed
knots
gust
knots
rain 1hr
in
rain 24hr
in
rain mn
in
humidity
%
barometer
mb
20260502221547 52 280 0.9 5.2 0.00 0.43 0.43 97 1009.7
20260502220049 52 280 0.9 5.2 0.00 0.43 0.43 97 1009.7
20260502214549 52 0 0.0 0.0 0.01 0.43 0.43 97 1009.8
20260502213049 52 0 0.0 0.0 0.01 0.42 0.42 97 1010.0
20260502211548 53 0 0.0 0.0 0.07 0.42 0.42 97 1010.1
20260502210048 52 280 0.9 6.1 0.10 0.42 0.42 97 1010.3
20260502204547 53 279 0.9 7.8 0.11 0.41 0.41 97 1010.4
20260502203047 53 278 0.9 6.1 0.11 0.40 0.40 96 1010.3
20260502201547 53 277 1.7 6.1 0.06 0.35 0.35 96 1010.3
20260502200049 54 274 0.9 6.1 0.03 0.32 0.32 96 1010.2
20260502194548 54 274 0.0 5.2 0.00 0.29 0.29 95 1010.2
20260502193048 54 273 1.7 7.0 0.00 0.29 0.29 97 1010.4
20260502191548 54 0 0.0 0.0 0.00 0.29 0.29 94 1010.1
20260502190048 54 0 0.0 0.0 0.00 0.29 0.29 94 1010.3
20260502184548 54 0 0.0 0.0 0.00 0.29 0.29 93 1010.4
20260502183047 54 0 0.0 0.0 0.01 0.29 0.29 93 1010.5
20260502181549 55 0 0.0 0.0 0.03 0.29 0.29 93 1010.8
20260502163048 59 273 0.0 5.2 0.06 0.06 0.06 82 1011.8
20260502161549 61 273 0.0 2.6 0.03 0.03 0.03 79 1011.9
20260502151548 64 263 1.7 7.8 0.00 0.00 0.00 62 1011.8
20260502123049 67 228 0.9 4.3 0.00 0.00 0.00 57 1014.5
20260502121550 67 220 0.9 6.1 0.00 0.00 0.00 56 1014.5
20260502114549 65 214 0.9 5.2 0.00 0.00 0.00 60 1015.1
20260502113048 64 213 0.9 5.2 0.00 0.00 0.00 61 1015.2
20260502111550 64 213 1.7 6.1 0.00 0.00 0.00 62 1015.5
20260502110049 63 222 0.9 6.1 0.00 0.00 0.00 64 1016.0
20260502104550 63 220 0.0 5.2 0.00 0.00 0.00 64 1015.8
20260502103049 63 220 0.0 3.5 0.00 0.00 0.00 64 1015.9
20260502101549 62 242 1.7 6.1 0.00 0.00 0.00 65 1016.1
20260502070050 53 0 0.0 0.0 0.00 0.00 0.00 87 1017.1
20260502064551 51 0 0.0 0.0 0.00 0.00 0.00 91 1017.2
20260502063050 50 0 0.0 0.0 0.00 0.00 0.00 91 1017.4
20260502061550 49 0 0.0 0.0 0.00 0.00 0.00 92 1017.4
20260502060052 48 0 0.0 0.0 0.00 0.00 0.00 92 1017.3
20260502054552 47 0 0.0 0.0 0.00 0.00 0.00 91 1017.3
20260502053055 47 0 0.0 0.0 0.00 0.00 0.00 90 1017.2
20260502051551 47 0 0.0 0.0 0.00 0.00 0.00 91 1017.3
20260502050051 47 0 0.0 0.0 0.00 0.00 0.00 93 1017.3
20260502044551 47 0 0.0 0.0 0.00 0.00 0.00 91 1017.3
20260502043050 48 0 0.0 0.0 0.00 0.00 0.00 91 1017.5
20260502041552 48 0 0.0 0.0 0.00 0.00 0.00 91 1017.3
20260502040052 48 0 0.0 0.0 0.00 0.00 0.00 89 1017.5
20260502034552 48 0 0.0 0.0 0.00 0.00 0.00 89 1017.6
20260502033051 48 0 0.0 0.0 0.00 0.00 0.00 89 1017.7
20260502031553 49 0 0.0 0.0 0.00 0.00 0.00 88 1017.4
20260502030053 49 0 0.0 0.0 0.00 0.00 0.00 88 1017.5
20260502024551 49 0 0.0 0.0 0.00 0.00 0.00 88 1017.6
20260502023048 49 0 0.0 0.0 0.00 0.00 0.00 88 1017.6
20260502021549 50 0 0.0 0.0 0.00 0.00 0.00 88 1017.8
20260502020048 50 0 0.0 0.0 0.00 0.00 0.00 86 1017.8
20260502014549 50 0 0.0 0.0 0.00 0.00 0.00 86 1017.9
20260502013047 51 0 0.0 0.0 0.00 0.00 0.00 86 1018.0
20260502011547 51 0 0.0 0.0 0.00 0.00 0.00 85 1018.1
20260502010049 51 0 0.0 0.0 0.00 0.00 0.00 85 1018.2
20260502004550 51 0 0.0 0.0 0.00 0.00 0.00 85 1018.4
20260502003155 52 0 0.0 0.0 0.00 0.00 0.00 85 1018.5
20260502003049 52 0 0.0 0.0 0.00 0.00 0.00 85 1018.5
20260502001549 52 0 0.0 0.0 0.00 0.00 0.00 85 1018.6
20260502000300 52 0 0.0 0.0 0.00 0.00 0.00 84 1018.7
20260502000048 52 0 0.0 0.0 0.00 0.00 0.00 84 1018.7
20260501234549 52 0 0.0 0.0 0.00 0.00 0.00 83 1018.8
20260501233048 53 0 0.0 0.0 0.00 0.00 0.00 82 1018.9
20260501231548 53 260 0.0 1.7 0.00 0.00 0.00 81 1019.0
20260501230047 53 260 0.0 3.5 0.00 0.00 0.00 81 1018.8
20260501224548 54 260 0.0 4.3 0.00 0.00 0.00 80 1018.7
20260501223121 54 260 0.9 4.3 0.00 0.00 0.00 80 1018.6
20260501223047 54 260 0.9 4.3 0.00 0.00 0.00 80 1018.6